Wind_Speed
17 19 20 20 19 19 20 19 19 18 18 17 16 15 14 12 11 8 5 6 5 6 20 23 17 9 7 4 1 7 5 4 5 4 2 3 3 4 1 3 2 3 2 1 2 4 1 10 4 6 5 3 4 7
17 19 21 21 19 19 19 18 19 19 18 18 17 16 15 14 12 10 6 9 14 15 17 21 30 33 31 22 9 3 3 3 1 3 0 2 2 1 3 3 2 2 4 4 2 5 5 11 16 12 12 11 6 2
16 19 20 21 20 19 19 19 18 19 18 18 18 17 16 15 14 14 11 11 11 11 20 12 3 4 9 15 20 7 4 1 4 4 4 2 1 3 2 4 2 2 4 5 4 4 3 11 13 13 10 8 6 3
17 18 19 20 20 20 20 19 19 19 18 19 19 19 18 16 14 14 13 11 9 5 4 7 6 3 4 4 8 19 18 10 11 9 0 2 1 4 3 2 3 3 3 6 2 3 3 9 10 8 6 3 3 2
18 18 19 19 20 20 20 20 20 19 19 19 19 20 19 15 13 11 8 4 2 3 4 14 20 7 11 11 12 15 18 18 12 2 1 3 3 1 1 2 2 2 6 4 5 11 10 6 10 7 4 6 5 3
19 19 19 19 19 20 20 21 21 20 19 19 18 18 17 15 11 6 3 3 2 3 5 4 9 6 11 10 14 14 15 15 9 5 4 4 3 1 1 2 5 3 7 19 9 14 14 16 11 7 5 5 5 2
21 21 20 19 19 20 21 21 22 21 19 19 18 16 14 14 8 4 1 1 2 5 3 7 9 5 8 12 12 15 14 10 8 5 5 5 2 1 3 3 10 14 13 20 21 23 14 11 8 10 9 9 5 6
22 22 21 20 19 20 20 21 21 21 20 19 16 15 15 8 3 2 1 7 7 5 4 2 4 9 5 3 5 13 9 8 6 5 2 4 3 2 2 5 21 17 15 14 14 9 14 12 15 11 6 4 3 6
22 22 22 21 19 19 20 20 21 21 20 19 13 9 1 2 1 1 6 7 6 6 3 2 2 4 11 3 2 2 4 1 3 3 4 4 1 3 6 18 25 23 13 18 14 12 12 8 7 4 2 2 8 15
23 23 22 22 20 18 19 20 20 21 18 15 8 2 2 1 4 11 3 3 4 5 5 4 4 4 7 7 2 2 1 1 2 4 3 2 4 7 7 22 24 16 16 16 16 10 10 11 9 6 4 4 8 12
24 23 22 21 20 18 17 18 19 18 14 11 6 3 3 5 7 2 2 3 4 3 6 6 8 3 4 1 3 1 1 1 1 4 3 2 3 3 18 21 17 16 13 9 6 5 5 6 7 6 6 6 10 15
24 22 20 19 18 17 15 15 16 14 13 15 12 14 9 2 2 0 3 2 4 4 4 4 3 5 5 4 1 2 1 1 4 1 1 2 2 12 20 20 17 11 7 5 3 4 6 7 8 7 7 8 12 15
23 22 21 18 16 14 12 11 12 15 17 10 3 3 2 2 1 4 3 2 2 3 3 2 1 4 4 2 1 2 1 4 5 1 3 4 9 18 18 16 11 5 2 2 4 4 3 6 8 9 9 10 15 17
21 19 17 15 12 10 9 9 12 13 8 3 2 5 4 3 4 3 2 3 3 2 2 1 2 5 5 5 3 1 3 1 1 2 5 3 26 21 15 11 7 4 2 2 4 7 6 7 9 10 12 13 14 14
17 15 14 13 10 10 11 11 12 10 4 3 3 4 4 5 4 3 12 3 7 3 1 4 4 2 1 1 2 2 2 3 4 4 3 11 20 15 11 8 4 3 3 6 7 9 10 11 12 13 13 14 12 10
15 14 11 10 9 9 12 11 14 6 4 5 7 3 8 4 3 8 13 10 4 2 3 5 2 1 1 2 2 5 2 3 3 2 3 17 17 14 9 6 3 1 6 9 11 12 12 12 12 12 10 10 9 9
15 13 10 11 14 15 11 12 5 6 6 5 7 11 15 15 11 6 14 11 7 1 3 4 3 4 3 2 3 1 2 3 9 5 14 13 8 5 4 2 2 5 8 7 6 7 7 7 7 8 7 7 7 4
17 15 14 13 11 13 11 5 5 5 6 10 7 12 11 13 16 16 10 13 11 4 4 2 3 4 4 3 2 2 4 8 2 8 6 9 8 4 1 0 1 4 7 6 9 11 10 8 6 4 5 5 2 3
17 15 14 12 9 7 4 3 5 5 8 8 12 18 17 20 23 22 21 18 16 14 5 6 4 3 4 4 4 2 3 4 5 4 3 4 5 4 3 3 2 1 5 8 7 8 10 14 12 8 5 9 10 17
14 12 8 6 6 3 3 5 5 6 4 5 13 20 20 18 20 17 16 17 17 8 7 5 4 7 6 8 7 12 10 8 8 7 9 12 10 8 6 3 2 1 2 5 8 7 6 9 13 11 15 16 13 13
7 2 3 4 8 9 4 4 5 5 7 7 11 10 11 19 22 22 20 15 13 7 6 12 14 13 17 9 14 15 14 14 11 7 9 16 15 11 8 6 5 3 3 3 3 6 11 13 12 15 16 19 14 18
7 4 4 3 4 4 6 6 6 9 6 9 13 7 8 6 7 10 9 11 7 16 23 25 25 24 19 22 20 14 15 12 12 7 8 11 13 14 13 10 8 5 5 3 2 2 3 8 10 7 4 3 6 5
5 3 3 4 5 4 4 5 4 4 3 4 5 4 4 5 5 3 4 6 8 18 23 24 27 27 27 26 25 16 14 16 19 15 14 11 9 11 15 14 13 11 10 7 3 1 1 1 4 6 4 3 3 3
5 3 3 3 6 3 3 3 4 4 4 3 3 4 4 4 6 4 3 4 11 16 13 15 17 20 19 22 23 24 22 20 20 17 14 20 15 12 12 12 13 13 11 9 10 7 5 4 4 4 5 6 6 9
3 4 4 5 5 3 3 3 4 3 3 3 3 4 3 4 2 2 2 6 13 14 9 6 14 14 19 19 17 19 17 18 23 20 17 14 13 15 15 15 15 12 14 15 15 12 12 7 7 7 7 6 7 9
3 4 5 4 4 4 3 2 3 2 2 3 4 5 4 2 2 3 1 7 9 10 10 7 4 5 11 14 16 16 15 14 18 22 17 14 14 15 14 15 15 10 10 12 13 13 12 12 12 10 10 11 10 10
4 4 5 7 5 5 4 7 7 4 3 3 2 3 2 2 2 1 11 7 4 8 12 17 15 10 9 9 10 8 7 10 13 13 15 17 15 15 13 14 16 4 5 10 12 14 13 11 9 12 13 13 16 16
6 4 4 3 6 10 3 3 3 3 3 4 3 2 2 2 2 6 18 5 11 28 17 16 11 9 13 11 8 6 6 8 8 10 12 15 16 14 14 18 16 18 18 15 16 17 19 18 13 9 11 15 15 15
5 7 6 11 8 7 6 6 5 6 6 4 4 3 4 5 15 24 25 31 29 28 28 24 18 0 8 7 4 3 2 3 5 13 14 14 13 9 14 15 15 14 16 19 19 15 12 14 16 15 11 10 13 16
7 14 6 6 4 5 8 13 13 16 17 19 18 24 32 36 33 29 31 31 26 18 16 14 13 5 2 5 7 8 6 2 3 6 12 15 14 11 10 12 14 13 14 18 20 21 20 17 16 14 10 9 11 17
6 6 6 7 6 14 22 23 26 29 32 34 32 28 33 34 36 25 20 16 12 10 9 4 5 8 3 6 12 4 6 5 2 6 11 12 14 14 13 11 13 13 14 15 22 24 21 20 19 17 16 14 10 10
5 8 6 4 11 16 14 14 14 11 14 16 20 22 23 15 11 9 7 8 6 10 10 7 7 6 2 2 6 5 3 2 3 2 9 14 16 16 18 16 14 13 11 10 9 13 18 15 17 18 13 11 9 7
8 10 11 9 5 5 4 5 4 5 6 4 3 4 10 7 5 4 9 10 5 5 6 6 5 4 5 8 8 11 13 7 6 2 4 5 13 19 19 17 15 14 12 9 7 8 11 20 20 14 13 16 13 13
Wind_Direction
334 338 341 338 337 339 342 343 348 350 350 350 348 347 343 339 336 339 247 248 287 266 280 274 264 234 285 269 150 326 354 333 22 61 123 206 174 236 358 255 213 188 135 50 89 93 129 345 31 110 186 159 142 165
329 334 338 341 339 337 339 341 342 345 346 346 345 344 341 336 330 326 312 257 280 268 267 281 279 273 264 249 278 293 267 265 257 82 234 119 246 35 125 271 343 3 177 145 115 174 219 58 104 106 110 102 96 72
321 328 333 339 339 337 336 338 338 338 338 338 339 340 336 330 324 318 312 301 296 286 295 281 274 17 233 242 242 227 250 174 40 3 168 186 269 128 151 248 315 355 132 113 73 285 140 107 106 105 101 89 76 29
315 320 327 333 335 333 333 335 334 334 332 330 331 333 332 328 321 314 313 305 297 294 294 279 261 298 207 229 222 220 226 263 310 308 271 138 197 190 211 208 175 223 69 129 73 182 107 97 99 100 100 93 82 86
312 313 318 324 329 329 330 332 334 333 330 326 325 326 326 327 321 314 313 317 238 286 281 290 301 243 197 244 230 219 230 248 272 228 95 237 238 143 357 75 271 193 167 139 201 187 137 138 127 123 120 113 128 158
313 311 312 316 320 324 325 327 330 332 330 326 319 320 321 325 318 311 254 256 290 323 320 309 314 284 231 223 210 222 224 226 221 205 214 240 233 96 113 185 267 232 155 135 151 148 141 131 126 122 112 107 129 126
318 311 310 312 314 319 322 325 328 331 332 325 314 315 315 319 309 261 327 272 274 341 297 304 312 301 324 204 206 202 212 223 229 216 216 237 261 188 120 170 204 154 140 132 141 138 141 163 144 142 131 122 90 16
329 320 312 312 312 315 319 322 326 330 330 327 313 313 306 299 299 99 167 255 266 303 276 285 277 320 5 211 192 218 213 198 217 219 217 211 179 133 240 241 171 158 146 143 152 160 145 145 147 140 116 83 25 323
328 329 324 318 314 313 315 319 325 331 330 329 317 325 328 147 139 301 304 287 242 240 278 240 259 274 349 19 261 220 209 142 212 195 228 152 246 217 222 177 174 170 164 152 143 140 148 163 160 170 187 300 317 316
321 322 325 324 317 313 315 318 324 337 338 338 324 303 220 206 297 301 300 225 202 209 228 242 251 270 337 347 330 331 257 210 181 243 138 137 240 243 254 186 173 173 162 161 145 153 166 170 181 196 241 295 308 312
313 316 318 322 320 315 315 318 325 335 345 354 329 277 258 277 301 250 244 209 177 248 218 239 236 253 271 209 253 264 198 264 100 261 144 232 271 239 159 155 155 149 149 156 169 181 195 209 221 244 259 289 306 312
304 309 314 317 317 317 317 318 324 335 339 325 303 286 289 236 217 225 238 176 196 231 205 210 252 241 279 261 232 341 297 46 242 320 87 240 265 150 148 141 140 145 156 155 178 222 235 238 227 228 251 288 311 320
301 299 305 306 311 315 318 322 330 332 330 324 318 295 270 191 60 210 241 278 270 227 203 265 309 3 317 324 12 42 46 245 324 339 229 220 159 149 144 143 142 147 200 256 202 214 228 229 233 235 263 293 311 313
300 301 299 299 301 303 308 327 334 338 329 304 294 306 192 218 237 205 248 243 317 273 164 49 26 65 343 358 11 263 253 71 280 264 242 208 172 161 158 154 176 176 190 256 286 288 275 253 253 267 286 295 298 304
301 302 310 314 291 277 295 309 319 317 289 273 257 244 237 252 292 349 8 14 11 348 94 93 65 150 245 166 247 321 260 243 223 241 246 181 165 157 155 169 189 207 273 303 305 297 284 275 276 280 288 288 288 293
304 312 307 300 295 295 304 309 321 270 237 239 235 258 256 286 305 352 0 1 336 154 49 66 359 28 288 306 279 226 228 223 270 258 92 154 161 156 161 167 183 331 331 317 308 299 289 280 278 281 277 273 272 290
300 301 303 298 296 301 307 309 298 224 231 230 247 246 258 278 268 261 323 312 307 142 203 123 232 236 164 191 257 272 247 283 339 183 155 151 146 143 152 128 21 346 334 335 357 353 324 300 289 284 274 259 267 274
288 300 300 307 299 310 314 264 237 243 246 246 250 262 254 259 278 290 276 293 304 277 173 256 251 194 218 215 246 294 344 358 67 194 191 159 150 153 188 141 68 44 34 46 33 26 33 9 346 309 250 227 204 188
296 294 291 294 302 312 281 253 228 263 250 271 270 277 285 287 283 279 276 274 267 268 227 166 232 200 225 215 178 82 360 341 26 268 273 205 187 192 193 188 180 54 32 33 36 40 41 43 34 27 90 124 116 121
299 301 283 254 236 239 269 272 266 272 270 286 282 286 291 282 287 284 267 254 252 240 208 212 202 217 212 219 264 283 301 328 332 274 213 241 222 211 201 191 183 222 328 6 18 23 22 44 39 79 109 114 115 130
314 347 323 237 211 217 265 277 266 269 295 280 291 301 284 278 272 267 262 256 223 211 212 213 214 230 215 249 243 275 244 270 286 281 224 228 214 210 214 221 227 242 288 302 345 45 70 84 102 105 117 114 106 136
292 279 269 236 217 220 256 245 256 299 280 272 292 261 259 268 260 247 224 203 224 227 228 235 235 236 236 234 232 237 267 285 279 246 248 221 218 219 221 228 231 235 251 272 302 67 114 114 129 122 116 81 124 151
269 238 243 237 226 232 257 244 250 251 263 268 283 271 252 253 260 246 227 224 237 250 252 246 240 233 236 240 243 245 237 245 262 250 226 250 239 228 235 243 246 254 257 256 259 138 120 161 171 172 175 170 158 151
213 242 249 236 211 262 254 242 234 255 263 256 250 270 277 262 299 244 246 257 289 301 271 250 246 242 241 236 239 239 234 249 239 243 257 223 230 224 214 224 245 253 263 265 256 251 225 207 217 224 182 179 192 184
243 238 225 243 229 229 243 240 219 237 254 240 258 259 267 278 244 248 254 348 339 354 355 272 251 238 229 228 225 228 240 235 227 248 256 225 224 224 236 251 260 256 254 260 254 249 240 226 222 227 217 202 205 215
245 233 210 231 202 214 232 257 235 264 272 261 253 266 270 271 266 278 326 333 337 335 331 325 345 239 223 224 234 244 246 247 242 246 242 230 217 222 256 258 242 265 241 229 222 225 231 227 225 229 235 233 231 241
244 253 241 239 262 255 252 263 263 259 269 262 244 267 260 246 258 199 346 334 348 35 352 330 324 300 254 234 232 237 242 243 241 236 210 204 218 237 254 234 227 224 234 230 218 220 228 227 235 241 246 265 271 268
248 260 236 274 238 238 250 253 252 241 239 233 256 281 283 281 296 351 339 305 309 327 333 329 319 255 234 243 255 257 259 262 239 212 218 220 221 237 255 241 248 240 246 255 228 225 221 229 234 243 239 236 244 253
243 244 259 267 268 253 225 216 235 237 238 280 321 304 268 274 302 310 299 309 315 314 315 335 355 112 222 241 234 176 133 142 217 211 215 225 240 231 226 233 239 239 238 240 226 224 234 216 224 225 237 276 248 248
247 222 218 245 219 231 231 227 247 263 270 271 276 282 287 290 292 297 297 297 301 297 318 336 347 29 87 151 122 108 113 95 195 217 225 228 233 233 234 230 227 235 240 234 230 222 219 216 223 232 236 256 258 238
258 195 226 237 253 253 259 269 274 276 275 275 274 269 275 291 305 304 296 277 263 273 282 356 327 320 301 141 205 205 159 78 46 227 235 236 233 234 227 232 231 230 233 239 242 230 227 236 247 261 259 260 263 273
230 219 217 241 275 286 285 276 267 250 270 254 252 256 266 276 279 278 356 354 222 217 217 211 233 247 230 214 210 240 253 210 357 251 231 234 235 244 248 226 223 232 244 270 291 244 224 233 253 260 254 266 263 275
238 258 256 266 268 266 260 227 263 275 254 259 262 236 224 211 253 315 335 331 255 266 230 230 270 247 256 269 267 251 251 246 237 248 341 296 233 233 233 233 240 242 242 255 287 296 251 239 256 267 293 266 264 257
Height
1553 1550 1546 1542 1538 1535 1531 1526 1522 1519 1515 1512 1509 1506 1504 1501 1499 1498 1496 1496 1496 1492 1482 1479 1479 1479 1478 1477 1477 1471 1469 1466 1465 1474 1479 1480 1482 1476 1473 1467 1467 1476 1480 1482 1483 1491 1492 1470 1469 1479 1481 1480 1482 1483
1551 1548 1544 1540 1536 1533 1529 1525 1521 1518 1514 1511 1508 1505 1503 1500 1498 1496 1495 1494 1492 1491 1480 1475 1473 1473 1474 1474 1477 1474 1473 1471 1470 1474 1476 1477 1476 1475 1479 1481 1465 1476 1470 1478 1480 1488 1476 1473 1474 1475 1477 1479 1481 1481
1548 1545 1542 1538 1534 1531 1527 1523 1519 1516 1513 1510 1506 1503 1501 1498 1496 1494 1492 1490 1488 1484 1473 1466 1463 1465 1465 1467 1470 1475 1470 1470 1470 1470 1470 1473 1475 1473 1478 1476 1466 1463 1464 1476 1479 1479 1477 1478 1478 1478 1479 1479 1478 1477
1545 1542 1539 1535 1532 1529 1526 1521 1517 1513 1510 1507 1504 1501 1498 1495 1493 1490 1488 1487 1486 1485 1481 1464 1462 1462 1463 1463 1463 1466 1468 1468 1470 1470 1469 1472 1474 1468 1473 1468 1470 1465 1464 1474 1479 1478 1478 1478 1477 1477 1477 1478 1477 1476
1541 1539 1536 1533 1529 1526 1523 1519 1515 1511 1507 1504 1501 1499 1495 1493 1490 1488 1486 1485 1484 1488 1482 1466 1460 1459 1460 1460 1462 1464 1466 1468 1469 1469 1470 1472 1466 1467 1467 1467 1468 1461 1465 1472 1479 1470 1472 1476 1476 1477 1477 1477 1476 1475
1538 1535 1532 1529 1526 1523 1520 1516 1512 1508 1504 1501 1498 1495 1493 1490 1488 1487 1486 1486 1484 1484 1482 1474 1462 1456 1457 1457 1459 1461 1463 1466 1466 1466 1466 1464 1463 1465 1470 1473 1461 1459 1458 1459 1464 1468 1470 1474 1475 1475 1475 1475 1474 1473
1535 1532 1528 1525 1522 1520 1516 1513 1509 1505 1501 1497 1494 1492 1490 1488 1486 1487 1487 1486 1484 1484 1483 1476 1465 1457 1455 1456 1458 1460 1461 1463 1464 1463 1463 1462 1461 1462 1467 1471 1460 1460 1461 1461 1464 1467 1472 1472 1473 1473 1473 1472 1472 1470
1532 1528 1525 1521 1518 1516 1513 1509 1506 1502 1498 1493 1490 1488 1486 1485 1485 1485 1485 1485 1484 1485 1483 1481 1469 1460 1456 1455 1457 1458 1458 1460 1460 1460 1460 1459 1459 1460 1465 1457 1458 1461 1463 1463 1464 1465 1467 1469 1471 1471 1469 1468 1468 1469
1529 1526 1522 1518 1515 1512 1509 1506 1502 1499 1494 1490 1486 1485 1484 1484 1484 1485 1484 1484 1484 1487 1482 1480 1477 1469 1458 1456 1455 1456 1455 1459 1458 1456 1456 1457 1460 1461 1453 1452 1455 1457 1459 1461 1463 1465 1466 1467 1467 1466 1466 1466 1465 1463
1527 1523 1519 1515 1512 1508 1506 1503 1499 1496 1492 1488 1485 1485 1483 1483 1484 1484 1481 1482 1481 1481 1480 1476 1471 1469 1462 1458 1456 1457 1455 1455 1459 1454 1453 1455 1455 1447 1447 1449 1453 1456 1457 1459 1461 1463 1464 1463 1463 1463 1463 1463 1463 1461
1522 1519 1516 1512 1509 1505 1503 1500 1497 1493 1491 1488 1486 1484 1483 1483 1482 1481 1480 1480 1478 1477 1474 1469 1467 1467 1462 1462 1459 1457 1456 1457 1460 1456 1454 1458 1455 1446 1446 1450 1454 1456 1458 1459 1459 1459 1459 1459 1459 1459 1460 1461 1460 1458
1517 1514 1511 1508 1506 1502 1500 1498 1495 1493 1490 1488 1486 1483 1481 1480 1480 1480 1477 1475 1474 1471 1466 1465 1464 1463 1460 1459 1457 1456 1456 1457 1458 1453 1454 1454 1448 1446 1448 1451 1454 1457 1458 1458 1458 1457 1457 1456 1456 1457 1459 1458 1456 1454
1511 1509 1507 1504 1502 1500 1498 1496 1494 1491 1488 1485 1484 1482 1481 1480 1481 1478 1474 1471 1470 1463 1463 1462 1462 1461 1459 1458 1457 1458 1458 1461 1453 1454 1451 1449 1446 1449 1451 1454 1456 1457 1457 1457 1457 1456 1455 1455 1455 1455 1455 1454 1453 1451
1505 1503 1501 1499 1498 1497 1496 1494 1492 1491 1488 1486 1484 1484 1479 1475 1473 1470 1469 1466 1463 1462 1460 1460 1461 1461 1464 1460 1460 1457 1456 1456 1458 1457 1448 1443 1442 1447 1451 1454 1456 1456 1456 1456 1455 1454 1453 1453 1452 1452 1452 1452 1450 1448
1500 1499 1497 1495 1493 1494 1493 1492 1491 1490 1489 1486 1484 1481 1473 1468 1467 1467 1465 1463 1463 1463 1461 1462 1463 1465 1465 1465 1463 1459 1457 1457 1454 1448 1442 1439 1445 1448 1451 1453 1454 1454 1454 1453 1452 1451 1450 1450 1449 1449 1449 1448 1447 1446
1497 1495 1493 1492 1491 1491 1490 1489 1488 1487 1486 1483 1478 1472 1468 1468 1466 1465 1465 1463 1465 1464 1463 1463 1466 1466 1464 1463 1461 1457 1453 1452 1448 1442 1442 1444 1446 1448 1450 1452 1452 1452 1452 1450 1448 1447 1446 1446 1445 1445 1444 1444 1444 1444
1493 1492 1491 1490 1489 1488 1487 1486 1485 1483 1479 1475 1468 1465 1466 1466 1465 1465 1465 1464 1464 1461 1463 1465 1466 1463 1464 1464 1457 1451 1451 1447 1445 1443 1442 1445 1448 1450 1451 1451 1452 1452 1451 1449 1447 1445 1444 1443 1442 1441 1441 1441 1442 1442
1490 1489 1488 1486 1485 1484 1483 1481 1481 1477 1471 1467 1465 1461 1462 1462 1461 1460 1461 1462 1463 1462 1460 1461 1459 1460 1458 1456 1453 1452 1449 1446 1446 1448 1446 1446 1448 1449 1450 1451 1452 1452 1451 1450 1448 1446 1443 1441 1439 1438 1438 1438 1440 1440
1486 1485 1485 1484 1484 1484 1482 1479 1477 1472 1466 1463 1461 1459 1458 1457 1455 1455 1455 1456 1457 1458 1458 1457 1457 1455 1453 1449 1449 1449 1450 1449 1448 1448 1448 1449 1450 1450 1451 1451 1452 1452 1452 1450 1448 1447 1445 1443 1441 1438 1437 1439 1440 1442
1483 1481 1480 1481 1482 1482 1480 1476 1473 1468 1464 1461 1458 1456 1454 1451 1449 1447 1447 1449 1451 1453 1451 1449 1446 1445 1445 1445 1446 1447 1448 1448 1448 1447 1448 1449 1450 1450 1451 1451 1451 1452 1451 1451 1450 1448 1447 1446 1444 1441 1442 1443 1445 1446
1480 1480 1479 1478 1479 1480 1479 1474 1470 1467 1463 1459 1455 1454 1450 1445 1442 1441 1440 1441 1443 1442 1439 1438 1439 1440 1442 1443 1446 1445 1445 1447 1447 1447 1447 1446 1448 1449 1450 1451 1451 1451 1451 1451 1451 1451 1450 1449 1449 1448 1448 1448 1450 1452
1479 1478 1478 1477 1477 1477 1475 1472 1470 1467 1464 1457 1454 1450 1446 1441 1435 1432 1432 1433 1432 1429 1429 1431 1433 1436 1438 1438 1440 1442 1441 1442 1444 1444 1445 1445 1446 1448 1448 1449 1449 1450 1450 1451 1451 1451 1452 1453 1454 1454 1454 1454 1455 1456
1478 1478 1477 1476 1476 1474 1472 1469 1468 1464 1462 1455 1451 1447 1441 1436 1431 1429 1428 1425 1422 1420 1420 1421 1423 1427 1430 1433 1435 1437 1438 1440 1439 1441 1442 1444 1444 1445 1446 1447 1448 1448 1449 1449 1450 1451 1452 1453 1454 1455 1455 1455 1456 1456
1477 1477 1475 1473 1472 1470 1468 1466 1464 1462 1457 1453 1448 1443 1437 1433 1430 1426 1423 1419 1417 1416 1414 1416 1418 1421 1423 1426 1428 1430 1433 1434 1435 1437 1438 1440 1441 1442 1443 1444 1445 1446 1447 1447 1449 1450 1451 1452 1453 1454 1455 1455 1456 1457
1478 1475 1474 1470 1469 1468 1465 1461 1459 1457 1453 1449 1446 1440 1435 1432 1427 1422 1420 1418 1416 1414 1413 1413 1414 1415 1417 1420 1422 1425 1427 1428 1430 1432 1434 1436 1437 1438 1440 1441 1442 1442 1443 1445 1446 1447 1449 1450 1451 1452 1453 1454 1455 1456
1475 1470 1469 1464 1463 1463 1460 1457 1453 1452 1451 1446 1441 1438 1434 1429 1426 1421 1419 1418 1417 1416 1415 1414 1413 1414 1415 1417 1418 1420 1422 1423 1424 1426 1428 1430 1432 1434 1436 1437 1438 1439 1440 1441 1443 1444 1446 1447 1448 1449 1450 1451 1452 1453
1470 1466 1464 1462 1460 1459 1457 1454 1453 1452 1450 1444 1439 1435 1430 1426 1422 1421 1421 1417 1416 1416 1417 1416 1415 1415 1415 1415 1416 1417 1418 1418 1419 1421 1424 1426 1429 1431 1433 1435 1436 1437 1437 1439 1440 1441 1443 1444 1445 1446 1447 1448 1449 1449
1466 1463 1462 1460 1458 1457 1455 1452 1450 1446 1442 1441 1439 1431 1430 1424 1423 1422 1421 1417 1418 1417 1413 1411 1410 1410 1412 1412 1413 1414 1414 1414 1415 1417 1421 1423 1425 1427 1428 1430 1431 1432 1434 1435 1437 1438 1440 1441 1442 1442 1443 1444 1444 1445
1462 1460 1460 1457 1456 1452 1449 1447 1444 1441 1439 1438 1437 1434 1429 1425 1423 1422 1418 1417 1414 1412 1408 1406 1406 1407 1408 1410 1411 1412 1413 1413 1415 1417 1420 1422 1423 1424 1425 1426 1427 1428 1429 1431 1432 1435 1436 1437 1438 1439 1439 1439 1439 1441
1455 1454 1455 1452 1450 1446 1441 1440 1436 1436 1435 1434 1433 1429 1425 1420 1418 1418 1414 1411 1412 1410 1408 1407 1407 1407 1406 1408 1410 1411 1411 1413 1413 1415 1416 1418 1420 1421 1421 1422 1423 1425 1425 1427 1428 1429 1430 1434 1435 1435 1435 1436 1436 1436
1452 1450 1449 1446 1441 1436 1434 1434 1432 1429 1427 1425 1424 1423 1418 1415 1409 1404 1402 1402 1404 1405 1406 1407 1406 1406 1407 1406 1406 1409 1410 1411 1411 1412 1413 1415 1416 1417 1418 1420 1421 1423 1424 1424 1425 1425 1427 1429 1431 1431 1431 1430 1431 1430
1445 1443 1442 1440 1433 1429 1428 1424 1422 1420 1415 1413 1413 1413 1413 1414 1412 1402 1399 1399 1399 1401 1403 1404 1405 1405 1405 1405 1406 1407 1408 1408 1408 1408 1409 1409 1411 1413 1415 1417 1419 1420 1421 1421 1421 1420 1423 1425 1426 1426 1426 1425 1425 1425
1440 1438 1438 1436 1431 1427 1422 1423 1419 1415 1412 1409 1406 1405 1406 1409 1407 1404 1402 1399 1399 1399 1400 1402 1403 1403 1402 1403 1403 1404 1406 1407 1407 1408 1407 1407 1408 1410 1412 1414 1416 1417 1418 1419 1418 1418 1419 1421 1422 1422 1422 1421 1421 1421